Starlink 11675

operational
NORAD ID: 64235 Int'l Des: 2025-119 Owner: SPXS Country: US Constellation: starlink
LEOCIRCULAR

Über Starlink 11675

Beschreibung wird geladen...

Live-Position

3D-Globus wird geladen...

Nächste Überflüge

Höhenverlauf

Altitude vs Time

uPlot chart will show altitude changes over time

Zweizeiliger Elementsatz

1 64235U 25119C 25353.63607732 .00182899 00000-0 13959-2 0 9996
2 64235 43.0002 331.7161 0002161 267.3230 92.7390 15.70869704 32659
Epoch: 19. Dez. 2025 • Age: 32 hours

Aktueller Status

Höhe 356.9 km
Geschwindigkeit 7.70 km/s
Subsatellitenpunkt 32.08°N, 77.07°W
Startdatum 3. Juni 2025
Alter 0.5 years
Typ internet

Technische Details

Klassifizierung Payload
Masse 960.00 kg
Trockenmasse 910.00 kg
Gesamtmasse 960.00 kg
Länge 0.30 m
Durchmesser 4.10 m
Spannweite 29.00 m
Form Box + pan
Hersteller SPXS
Bus-Typ Starlink V2MD
Phasenstatus In Orbit
Besitzer/Staat SPXS/US

Große Konstellationen

Loading constellations...